Location: Unspecified
(0.0000°N, 0.0000°E)
Time: 14:56:33
(UTC+00:00)

ISS - Pass Details

Date: 14 August 2019
Orbit: 410 x 421 km, 51.6° (Epoch: 22 August)

Event Time Altitude Azimuth Distance (km) Brightness Sun altitude
Rises 19:54:25 0° 296° (WNW) 2,346 1.3 -26.5°
Reaches altitude 10° 19:57:07 10° 273° (W) 1,485 0.0 -27.2°
Enters shadow 19:58:47 15° 243° (WSW) 1,205 -1.0 -27.6°
